AirNav   Air Wisconsin pilot careers
 
 1027 users online  

KBXG Burke County Airport
Waynesboro, Georgia, USA

GOING TO WAYNESBORO?


FAA INFORMATION EFFECTIVE 04 JANUARY 2018

Location

FAA Identifier: BXG
Lat/Long: 33-02-28.6000N / 082-00-10.0000W
33-02.476667N / 082-00.166667W
33.0412778 / -82.0027778
(estimated)
Elevation: 308.4 ft. / 94.0 m (surveyed)
Variation: 04W (1985)
From city: 3 miles S of WAYNESBORO, GA
Time zone: UTC -5 (UTC -4 during Daylight Saving Time)
Zip code: 30830

Airport Operations

Airport use: Open to the public
Activation date: 12/1967
Control tower: no
ARTCC: ATLANTA CENTER
FSS: MACON FLIGHT SERVICE STATION
NOTAMs facility: MCN (NOTAM-D service available)
Attendance: UNATNDD
Wind indicator: lighted
Segmented circle: yes
Lights: ACTVT MIRL RY 08/26 - CTAF.
Beacon: white-green (lighted land airport)
Operates sunset to sunrise.

Airport Communications

CTAF: 122.9
AUGUSTA APPROACH: 126.8
AUGUSTA DEPARTURE: 126.8
WX AWOS-3PT at 2J3 (20 nm W): 119.35 (478-625-8303)
WX ASOS at AGS (20 nm N): PHONE 706-790-0631
  • APCH/DEP SVC PRVDD BY ATLANTA ARTCC ON FREQS 128.1/322.325 (AUGUSTA RCAG) WHEN APCH CTL CLSD.

Nearby radio navigation aids

VOR radial/distance  VOR name  Freq  Var
ALDr274/(35.8)ALLENDALE VOR116.7001W

 
NDB name  Hdg/Dist  Freq  Var  ID
MILLEN353/9.020505WLNH .-.. -. ....
EMORY185/25.338504WEMR . -- .-.
SYLVANIA323/31.324504WJYL .--- -.-- .-..
EMANUEL COUNTY051/31.930906WEEX . . -..-

Airport Services

Parking: tiedowns
Airframe service: NONE
Powerplant service: NONE
Bottled oxygen: NONE
Bulk oxygen: NONE

Runway Information

Runway 8/26

Dimensions: 4012 x 75 ft. / 1223 x 23 m
Surface: asphalt, in excellent condition
Weight bearing capacity: 
Single wheel: 20.0
Runway edge lights: medium intensity
RUNWAY 8  RUNWAY 26
Latitude: 33-02.369050N33-02.583145N
Longitude: 082-00.537512W081-59.794412W
Elevation: 291.9 ft.308.4 ft.
Gradient: 0.4% UP0.3%
Traffic pattern: leftleft
Runway heading: 075 magnetic, 071 true255 magnetic, 251 true
Displaced threshold: no90 ft.
Markings: nonprecision, in good conditionnonprecision, in good condition
Touchdown point: yes, no lightsyes, no lights
Obstructions: 40 ft. trees, 1200 ft. from runway, 350 ft. right of centerline, 25:1 slope to clear15 ft. road, 201 ft. from runway, 200 ft. left of centerline
COUNTY ROAD 200 FT LEFT FM PARALLEL THE RY TO MID-FIELD; +3-6 FT BERM 0-200 FT FROM END OF RY 85 FT LEFT.

Airport Ownership and Management from official FAA records

Ownership: Publicly-owned
Owner: BURKE COUNTY
COUNTY COURTHOUSE PO BOX 89
WAYNESBORO, GA 30830
Phone 706-554-2324
Manager: MERV WALDROP
PO BOX 89
WAYNESBORO, GA 30830
Phone 706-554-2324
ARPT PHONE 706-554-5270.

Airport Operational Statistics

Aircraft based on the field: 13
Single engine airplanes: 12
Multi engine airplanes: 1
    
Aircraft operations: avg 57/week *
67% transient general aviation
33% local general aviation
* for 12-month period ending 31 December 2016

Additional Remarks

DEER ON & INVOF ARPT.

Instrument Procedures

NOTE: All procedures below are presented as PDF files. If you need a reader for these files, you should download the free Adobe Reader.

NOT FOR NAVIGATION. Please procure official charts for flight.
FAA instrument procedures published for use between 4 January 2018 at 0901Z and 1 February 2018 at 0900Z.

 
IAPs - Instrument Approach Procedures
RNAV (GPS) RWY 08   download (153KB)
RNAV (GPS) RWY 26   download (143KB)
NOTE: Special Take-Off Minimums/Departure Procedures apply   download (189KB)

Other nearby airports with instrument procedures:

2J5 - Millen Airport (9 nm S)
2J3 - Louisville Municipal Airport (20 nm W)
KAGS - Augusta Regional Airport at Bush Field (20 nm N)
KDNL - Daniel Field Airport (26 nm N)
KJYL - Plantation Airpark (31 nm SE)
 
Loc | Ops | Rwys | IFR | FBO | Links
Com | Nav | Svcs | Stats | Notes


 
Area around KBXG (Burke County Airport)
 
Road maps at: MapQuest Bing Google
 
Aerial photo
WARNING: Photo may not be current or correct
Aerial photo of KBXG (Burke County Airport)
Do you have a better or more recent aerial photo of Burke County Airport that you would like to share? If so, please send us your photo.

 
Sectional chart

 
Airport distance calculator
Flying to Burke County Airport? Find the distance to fly.

From to KBXG

Sunrise and sunset
Times for 18-Jan-2018
 Local
(UTC-5)
 Zulu
(UTC)
Morning civil twilight07:0512:05
Sunrise07:3112:31
Sunset17:4622:46
Evening civil twilight18:1223:12

Current date and time
Zulu (UTC)  18-Jan-2018 23:57:59
Local (UTC-5)  18-Jan-2018 18:57:59
 
METAR
KAGS 
20nm N 
182353Z 25004KT 5SM HZ CLR 01/M07 A3031 RMK AO2 SLP266 T00111072 10106 20011 53004
KDNL 
26nm N 
182353Z AUTO 00000KT 10SM CLR 06/M10 A3031 RMK AO2 SLP266 T00611100 10100 20061 53003
KJYL 
31nm SE 
182335Z AUTO 00000KT 10SM CLR 04/M07 A3033 RMK AO2 T00371072
KSBO 
32nm SW 
182335Z AUTO 00000KT 10SM CLR 02/M04 A3034 RMK AO2
KBNL 
33nm NE 
182335Z AUTO 00000KT 10SM 03/M07 A3031 RMK AO2
KTBR 
36nm S 
182335Z AUTO 00000KT 10SM CLR 02/M09 A3032 RMK AO2 T00201095
KAQX 
37nm E 
182335Z AUTO 00000KT 10SM CLR 03/M08 A3031 RMK AO2
KHQU 
39nm NW 
182335Z AUTO 30005KT 10SM CLR 04/M10 A3036 RMK AO2 T00381103
TAF
KAGS 
20nm N 
182120Z 1821/1918 29005KT P6SM SKC FM190000 00000KT P6SM SKC FM191500 25004KT P6SM SKC
NOTAMs
Click for the latest NOTAMs
NOTAMs are issued by the DoD/FAA and will open in a separate window not controlled by AirNav.

 

 
 

Would you like to see your business listed on this page?

 If your business provides an interesting product or service to pilots, flight crews, aircraft, or users of the Burke County Airport, you should consider listing it here.  To start the listing process, click on the button below
 
Add a business
 

Other Pages about Burke County Airport

East Georgia's Premier Hunting and Fishing Resort & Spa
 
Update a link
 
Copyright © AirNav, LLC. All rights reserved. Privacy Policy  Contact